Date String (YYYY-MM-DD hh:mm:ss) UTC,Instrument flags,Ambient pressure (hPa),Sample flow (lpm),Bypass flow (lpm),Sample temperature (°C),Ambient temperature (°C),ASC tube jacket temperature (°C),LED temperature (°C),Box temperature (°C),Sample RH (%),Span deviation,Mass concentration (μg/m³),Mass concentration (μg/m³),Mass concentration (μg/m³)
DateTimeUTC,F1_M11,P_M11,Q1_M11,Q2_M11,T1_M11,T2_M11,T3_M11,T4_M11,T5_M11,U1_M11,ZSPAN_M11,X2_M11,X0_M11,X1_M11
2021-10-20 18:00:00,,0830.6,5.01,0.00,25.6,24.8,00.0,34.5,27.5,15.1,0000.0,0002.95,0006.41,0002.29
2021-10-20 18:01:00,,0830.6,5.00,0.00,25.6,24.9,00.0,34.5,27.5,15.0,0000.0,0002.76,0006.22,0002.20
2021-10-20 18:02:00,,0830.5,5.00,0.00,25.6,24.9,00.0,34.5,27.5,15.1,0000.0,0002.66,0006.10,0002.15
2021-10-20 18:03:00,,0830.5,4.99,0.00,25.6,24.9,00.0,34.5,27.6,15.2,0000.0,0002.67,0006.43,0002.16
2021-10-20 18:04:00,,0830.5,5.01,0.00,25.6,24.9,00.0,34.6,27.6,15.2,0000.0,0002.68,0006.63,0002.14
2021-10-20 18:05:00,,0830.5,4.99,0.00,25.7,25.0,00.0,34.6,27.6,15.2,0000.0,0002.77,0007.27,0002.15
2021-10-20 18:06:00,,0830.5,5.01,0.00,25.7,25.0,00.0,34.6,27.6,15.3,0000.0,0002.76,0007.96,0002.15
2021-10-20 18:07:00,,0830.5,4.99,0.00,25.7,25.0,00.0,34.6,27.7,15.2,0000.0,0002.75,0008.08,0002.13
2021-10-20 18:08:00,,0830.5,5.00,0.00,25.7,25.0,00.0,34.6,27.7,14.7,0000.0,0002.70,0008.09,0002.09
2021-10-20 18:09:00,,0830.6,5.01,0.00,25.7,25.0,00.0,34.7,27.7,14.7,0000.0,0002.65,0008.45,0002.04
2021-10-20 18:10:00,,0830.5,4.99,0.00,25.8,25.1,00.0,34.7,27.7,14.6,0000.0,0002.64,0009.10,0002.02
2021-10-20 18:11:00,,0830.5,5.01,0.00,25.8,25.1,00.0,34.7,27.7,14.8,0000.0,0002.65,0008.41,0002.01
2021-10-20 18:12:00,,0830.5,4.99,0.00,25.8,25.1,00.0,34.7,27.7,15.2,0000.0,0002.72,0008.22,0002.02
2021-10-20 18:13:00,,0830.5,5.01,0.00,25.8,25.1,00.0,34.7,27.7,15.4,0000.0,0002.75,0008.24,0002.03
2021-10-20 18:14:00,,0830.4,5.00,0.00,25.8,25.1,00.0,34.7,27.8,15.5,0000.0,0002.74,0008.05,0002.02
2021-10-20 18:15:00,,0830.4,5.00,0.00,25.9,25.2,00.0,34.8,27.8,15.3,0000.0,0002.70,0007.75,0002.00
2021-10-20 18:16:00,,0830.4,5.00,0.00,25.9,25.2,00.0,34.8,27.8,14.9,0000.0,0002.68,0007.38,0002.00
2021-10-20 18:17:00,,0830.4,4.99,0.00,25.9,25.2,00.0,34.8,27.9,15.0,0000.0,0002.70,0006.34,0001.99
2021-10-20 18:18:00,,0830.4,4.99,0.00,25.9,25.2,00.0,34.8,27.9,14.6,0000.0,0002.65,0006.05,0001.96
2021-10-20 18:19:00,,0830.4,5.01,0.00,25.9,25.2,00.0,34.9,27.9,14.6,0000.0,0002.63,0007.44,0001.94
2021-10-20 18:20:00,,0830.5,5.00,0.00,26.0,25.2,00.0,34.9,27.9,14.7,0000.0,0002.60,0008.59,0001.92
2021-10-20 18:21:00,,0830.5,4.99,0.00,26.0,25.3,00.0,34.9,28.0,14.5,0000.0,0002.58,0007.81,0001.91
2021-10-20 18:22:00,,0830.5,5.01,0.00,26.0,25.3,00.0,34.9,28.0,14.5,0000.0,0002.57,0008.04,0001.88
2021-10-20 18:23:00,,0830.5,5.01,0.00,26.0,25.4,00.0,34.9,28.0,14.3,0000.0,0002.47,0008.05,0001.82
2021-10-20 18:24:00,,0830.5,5.00,0.00,26.1,25.4,00.0,34.9,28.0,13.7,0000.0,0002.34,0007.95,0001.74
2021-10-20 18:25:00,,0830.6,5.00,0.00,26.1,25.4,00.0,35.0,28.0,13.5,0000.0,0002.26,0007.90,0001.67
2021-10-20 18:26:00,,0830.6,5.00,0.00,26.1,25.4,00.0,35.0,28.1,13.5,0000.0,0002.22,0007.88,0001.63
2021-10-20 18:27:00,,0830.5,4.98,0.00,26.1,25.5,00.0,35.0,28.1,13.3,0000.0,0002.09,0007.74,0001.57
2021-10-20 18:28:00,,0830.6,5.01,0.00,26.1,25.5,00.0,35.0,28.1,12.9,0000.0,0002.02,0007.65,0001.51
2021-10-20 18:29:00,,0830.5,5.00,0.00,26.2,25.4,00.0,35.1,28.1,13.0,0000.0,0002.00,0007.68,0001.47
2021-10-20 18:30:00,,0830.5,5.00,0.00,26.1,25.3,00.0,35.1,28.0,13.0,0000.0,0001.94,0006.90,0001.41
2021-10-20 18:31:00,,0830.4,5.01,0.00,26.1,25.3,00.0,35.1,28.0,13.0,0000.0,0001.91,0003.81,0001.38
2021-10-20 18:32:00,,0830.4,4.99,0.00,26.1,25.4,00.0,35.1,28.1,12.8,0000.0,0001.84,0003.74,0001.35
2021-10-20 18:33:00,,0830.4,5.00,0.00,26.2,25.5,00.0,35.1,28.1,13.0,0000.0,0001.75,0003.48,0001.32
2021-10-20 18:34:00,,0830.5,5.00,0.00,26.2,25.5,00.0,35.1,28.1,13.4,0000.0,0001.74,0003.14,0001.32
2021-10-20 18:35:00,,0830.5,5.01,0.00,26.2,25.6,00.0,35.1,28.2,13.3,0000.0,0001.80,0003.21,0001.35
2021-10-20 18:36:00,,0830.5,4.99,0.00,26.2,25.6,00.0,35.2,28.2,13.2,0000.0,0001.84,0003.27,0001.38
2021-10-20 18:37:00,,0830.5,5.01,0.00,26.3,25.7,00.0,35.2,28.2,13.2,0000.0,0001.85,0003.29,0001.41
2021-10-20 18:38:00,,0830.5,5.00,0.00,26.3,25.8,00.0,35.2,28.3,13.1,0000.0,0001.87,0003.39,0001.44
2021-10-20 18:39:00,,0830.4,5.00,0.00,26.4,25.8,00.0,35.2,28.3,13.2,0000.0,0001.85,0003.86,0001.46
2021-10-20 18:40:00,,0830.4,5.00,0.00,26.4,25.9,00.0,35.3,28.4,13.4,0000.0,0001.80,0005.07,0001.47
2021-10-20 18:41:00,,0830.4,4.99,0.00,26.4,25.9,00.0,35.3,28.4,13.3,0000.0,0001.80,0006.21,0001.49
2021-10-20 18:42:00,,0830.4,5.00,0.00,26.5,25.9,00.0,35.3,28.4,13.1,0000.0,0001.85,0006.73,0001.54
2021-10-20 18:43:00,,0830.4,5.01,0.00,26.5,25.9,00.0,35.4,28.5,13.0,0000.0,0001.91,0006.92,0001.58
2021-10-20 18:44:00,,0830.5,5.00,0.00,26.5,25.9,00.0,35.4,28.5,13.1,0000.0,0001.99,0007.45,0001.63
2021-10-20 18:45:00,,0830.5,5.00,0.00,26.5,26.0,00.0,35.4,28.5,13.2,0000.0,0002.00,0008.09,0001.66
2021-10-20 18:46:00,,0830.4,5.00,0.00,26.6,26.0,00.0,35.4,28.5,13.0,0000.0,0001.98,0009.12,0001.66
2021-10-20 18:47:00,,0830.3,5.01,0.00,26.6,26.1,00.0,35.4,28.6,13.0,0000.0,0001.99,0009.19,0001.66
2021-10-20 18:48:00,,0830.2,5.00,0.00,26.6,26.1,00.0,35.5,28.6,12.9,0000.0,0002.02,0009.28,0001.67
2021-10-20 18:49:00,,0830.3,5.01,0.00,26.7,26.1,00.0,35.5,28.7,12.8,0000.0,0002.05,0009.24,0001.69
2021-10-20 18:50:00,,0830.4,4.99,0.00,26.7,26.1,00.0,35.5,28.7,12.7,0000.0,0002.13,0009.84,0001.71
2021-10-20 18:51:00,,0830.4,5.00,0.00,26.7,26.1,00.0,35.6,28.7,12.6,0000.0,0002.20,0009.76,0001.74
2021-10-20 18:52:00,,0830.3,5.00,0.00,26.7,26.1,00.0,35.6,28.7,12.7,0000.0,0002.26,0009.56,0001.78
2021-10-20 18:53:00,,0830.3,5.00,0.00,26.8,26.1,00.0,35.6,28.7,12.7,0000.0,0002.27,0009.47,0001.80
2021-10-20 18:54:00,,0830.2,5.00,0.00,26.8,26.2,00.0,35.7,28.8,12.6,0000.0,0002.29,0010.04,0001.81
2021-10-20 18:55:00,,0830.2,4.99,0.00,26.8,26.2,00.0,35.7,28.8,12.6,0000.0,0002.30,0010.03,0001.82
2021-10-20 18:56:00,,0830.2,5.00,0.00,26.8,26.2,00.0,35.7,28.8,12.5,0000.0,0002.35,0009.71,0001.82
2021-10-20 18:57:00,,0830.2,5.01,0.00,26.9,26.2,00.0,35.7,28.8,12.5,0000.0,0002.40,0009.46,0001.83
2021-10-20 18:58:00,,0830.2,5.00,0.00,26.9,26.3,00.0,35.7,28.9,12.1,0000.0,0002.46,0009.57,0001.85
2021-10-20 18:59:00,,0830.2,5.00,0.00,26.9,26.3,00.0,35.8,28.9,12.1,0000.0,0002.46,0009.54,0001.88
